Date,TemperatureHighF,TemperatureAvgF,TemperatureLowF,DewpointHighF,DewpointAvgF,DewpointLowF,HumidityHigh,HumidityAvg,HumidityLow,PressureMaxIn,PressureMinIn,WindSpeedMaxMPH,WindSpeedAvgMPH,GustSpeedMaxMPH,PrecipitationSumIn
2013-1-1,76,64,53,68,59,48,84,82,76,30.01,29.84,5,1,12,0.13
2013-1-2,53,50,43,48,45,39,86,84,82,30.11,29.91,1,0,4,0.05
2013-1-3,48,41,37,41,37,32,91,84,73,30.28,30.09,1,0,3,0.28
2013-1-4,59,44,35,40,35,31,86,72,44,30.35,30.22,1,0,4,0.00
2013-1-5,52,47,41,42,39,36,85,75,60,30.28,30.16,0,0,1,0.00
2013-1-6,50,47,42,46,42,38,86,84,76,30.20,30.10,0,0,2,0.07
2013-1-7,64,48,37,45,40,34,92,76,47,30.24,30.10,1,0,3,0.01
2013-1-8,67,57,46,61,52,42,86,83,77,30.16,30.04,1,0,4,0.00
2013-1-9,66,63,59,60,57,54,83,81,80,30.15,30.08,1,0,4,0.03
2013-1-10,70,65,60,63,59,55,83,81,79,30.14,29.91,5,1,12,0.49
2013-1-11,79,69,61,71,62,55,81,79,70,30.05,29.96,5,1,11,0.00
2013-1-12,74,68,66,67,62,59,81,79,76,30.01,29.88,4,1,12,0.00
2013-1-13,75,70,62,68,63,55,79,77,75,29.93,29.85,5,3,17,0.02
2013-1-14,66,54,44,59,48,39,83,80,78,30.03,29.92,1,0,3,0.02
2013-1-15,70,56,44,62,50,39,84,81,76,29.99,29.84,1,0,5,0.39
2013-1-16,60,48,41,53,43,37,84,82,79,29.97,29.85,0,0,3,0.09
2013-1-17,52,42,36,43,37,32,86,81,67,30.28,29.96,2,0,9,0.02
2013-1-18,59,45,36,44,38,32,86,77,51,30.42,30.27,1,0,4,0.00
2013-1-19,64,49,35,51,41,32,86,76,57,30.31,30.15,0,0,3,0.00
2013-1-20,64,45,37,54,40,33,89,81,61,30.19,30.11,1,0,3,0.00
2013-1-21,57,57,57,50,50,50,79,79,79,30.21,30.21,0,0,0,0.00
2013-1-22,57,57,57,50,50,50,79,79,79,30.21,30.21,0,0,0,0.00
2013-1-23,57,56,51,51,50,46,83,80,79,30.23,30.21,1,0,0,0.00
2013-1-25,71,62,52,60,55,46,82,78,67,30.11,30.06,4,1,10,0.01
2013-1-26,74,61,54,65,54,48,83,78,64,30.17,30.09,2,0,10,0.01
2013-1-27,72,59,48,64,52,42,85,80,75,30.23,30.15,3,0,10,0.00
2013-1-28,56,6,53,50,-83,-100,80,9,79,30.19,30.06,3,1,10,0.01
2013-1-29,-200,0,200,-100,-100,-100,0,0,100,30.06,29.77,7,3,14,0.30
2013-1-30,-200,0,200,-100,-100,-100,0,0,100,30.03,29.61,10,3,21,0.78
2013-1-31,-200,0,200,-100,-100,-100,0,0,100,30.23,30.02,1,0,3,0.00
2013-2-1,-200,0,200,-100,-100,-100,0,0,100,30.31,30.21,1,0,4,0.00
2013-5-1,-200,0,200,-100,-100,-100,0,0,100,29.79,29.77,0,-999,0,0.01